Location: Unspecified
(0.0000°N, 0.0000°E)
Time: 00:27:44
(UTC+00:00)

Tiros 1 despin weight - Visible Passes

Search period start: 22 May 2018 00:00
Search period end: 01 June 2018 00:00
Orbit: 595 x 643 km, 48.2° (Epoch: 20 May)

Date Brightness Start Highest point End Pass type
(mag) Time Alt. Az. Time Alt. Az. Time Alt. Az.
22 May ? 04:18:18 24° S 04:20:08 33° SE 04:24:19 10° ENE visible
23 May ? 04:35:01 37° SW 04:36:53 90° NW 04:41:32 10° NE visible
24 May ? 03:14:35 14° E 03:14:35 14° E 03:15:31 10° E visible
24 May ? 04:51:42 24° W 04:53:36 32° NW 04:57:46 10° NNE visible
25 May ? 03:31:11 27° ENE 03:31:11 27° ENE 03:33:27 10° NE visible
25 May ? 05:08:20 10° WNW 05:10:23 13° NW 05:12:26 10° NNW visible
26 May ? 03:47:43 30° NNE 03:47:43 30° NNE 03:50:15 10° NNE visible
27 May ? 04:04:10 18° NNW 04:04:10 18° NNW 04:05:59 10° N visible
